| time (UTC) | temp F | wind direction | speed MPH | gust MPH | rain 1hr in | rain 24hr in | rain mn in | humidity % | barometer mb |
| 20260504225523 | 68 | 259 | 1.0 | 4.0 | 0.00 | 0.00 | 0.00 | 34 | 1006.0 |
| 20260504225024 | 69 | 0 | 0.0 | 5.0 | 0.00 | 0.00 | 0.00 | 34 | 1005.9 |
| 20260504224538 | 69 | 79 | 1.0 | 5.0 | 0.00 | 0.00 | 0.00 | 33 | 1005.9 |
| 20260504224027 | 69 | 259 | 1.0 | 5.0 | 0.00 | 0.00 | 0.00 | 33 | 1005.8 |
| 20260504223527 | 69 | 0 | 1.0 | 5.0 | 0.00 | 0.00 | 0.00 | 33 | 1005.8 |
| 20260504223057 | 70 | 0 | 1.0 | 7.0 | 0.00 | 0.00 | 0.00 | 34 | 1005.8 |
| 20260504222527 | 70 | 0 | 1.0 | 8.0 | 0.00 | 0.00 | 0.00 | 33 | 1005.8 |
| 20260504222023 | 70 | 195 | 2.0 | 8.0 | 0.00 | 0.00 | 0.00 | 32 | 1005.8 |
| 20260504221537 | 70 | 135 | 2.0 | 6.0 | 0.00 | 0.00 | 0.00 | 33 | 1005.9 |
| 20260504221027 | 70 | 142 | 1.0 | 6.0 | 0.00 | 0.00 | 0.00 | 33 | 1005.8 |
| 20260504220525 | 70 | 215 | 1.0 | 7.0 | 0.00 | 0.00 | 0.00 | 33 | 1005.8 |
| 20260504220039 | 70 | 153 | 1.0 | 7.0 | 0.00 | 0.00 | 0.00 | 33 | 1005.8 |
| 20260504215524 | 70 | 232 | 2.0 | 6.0 | 0.00 | 0.00 | 0.00 | 32 | 1005.9 |
| 20260504215026 | 71 | 173 | 1.0 | 8.0 | 0.00 | 0.00 | 0.00 | 33 | 1005.9 |
| 20260504214537 | 71 | 259 | 2.0 | 8.0 | 0.00 | 0.00 | 0.00 | 32 | 1005.9 |
| 20260504214027 | 71 | 277 | 2.0 | 5.0 | 0.00 | 0.00 | 0.00 | 32 | 1005.8 |
| 20260504213523 | 71 | 350 | 1.0 | 6.0 | 0.00 | 0.00 | 0.00 | 32 | 1005.8 |
| 20260504213043 | 71 | 94 | 2.0 | 8.0 | 0.00 | 0.00 | 0.00 | 32 | 1005.8 |
| 20260504212526 | 71 | 286 | 2.0 | 8.0 | 0.00 | 0.00 | 0.00 | 31 | 1005.8 |
| 20260504212024 | 71 | 20 | 1.0 | 6.0 | 0.00 | 0.00 | 0.00 | 32 | 1005.8 |
| 20260504211613 | 71 | 285 | 2.0 | 6.0 | 0.00 | 0.00 | 0.00 | 31 | 1005.9 |
| 20260504211025 | 71 | 274 | 2.0 | 8.0 | 0.00 | 0.00 | 0.00 | 31 | 1005.8 |
| 20260504210529 | 71 | 160 | 1.0 | 8.0 | 0.00 | 0.00 | 0.00 | 31 | 1005.7 |
| 20260504210046 | 71 | 290 | 2.0 | 8.0 | 0.00 | 0.00 | 0.00 | 31 | 1005.8 |
| 20260504205525 | 71 | 228 | 0.0 | 5.0 | 0.00 | 0.00 | 0.00 | 31 | 1005.8 |
| 20260504205023 | 72 | 181 | 1.0 | 7.0 | 0.00 | 0.00 | 0.00 | 29 | 1005.8 |
| 20260504204538 | 72 | 203 | 2.0 | 7.0 | 0.00 | 0.00 | 0.00 | 32 | 1005.8 |
| 20260504204023 | 72 | 304 | 2.0 | 6.0 | 0.00 | 0.00 | 0.00 | 29 | 1005.8 |
| 20260504203524 | 73 | 181 | 1.0 | 6.0 | 0.00 | 0.00 | 0.00 | 30 | 1005.7 |
| 20260504203037 | 72 | 287 | 1.0 | 7.0 | 0.00 | 0.00 | 0.00 | 30 | 1005.8 |
| 20260504202527 | 73 | 136 | 3.0 | 7.0 | 0.00 | 0.00 | 0.00 | 30 | 1005.8 |
| 20260504202024 | 73 | 287 | 2.0 | 6.0 | 0.00 | 0.00 | 0.00 | 29 | 1005.7 |
| 20260504201534 | 73 | 143 | 1.0 | 7.0 | 0.00 | 0.00 | 0.00 | 28 | 1005.7 |
| 20260504201026 | 72 | 93 | 1.0 | 8.0 | 0.00 | 0.00 | 0.00 | 30 | 1005.7 |
| 20260504200527 | 72 | 254 | 2.0 | 9.0 | 0.00 | 0.00 | 0.00 | 29 | 1005.7 |
| 20260504200044 | 72 | 158 | 3.0 | 9.0 | 0.00 | 0.00 | 0.00 | 29 | 1005.8 |
| 20260504195526 | 73 | 108 | 2.0 | 7.0 | 0.00 | 0.00 | 0.00 | 29 | 1005.8 |
| 20260504195027 | 73 | 295 | 2.0 | 8.0 | 0.00 | 0.00 | 0.00 | 28 | 1005.8 |
| 20260504194548 | 73 | 288 | 2.0 | 8.0 | 0.00 | 0.00 | 0.00 | 27 | 1005.9 |
| 20260504194024 | 73 | 77 | 3.0 | 8.0 | 0.00 | 0.00 | 0.00 | 27 | 1005.9 |
| 20260504193526 | 73 | 195 | 2.0 | 7.0 | 0.00 | 0.00 | 0.00 | 29 | 1005.8 |
| 20260504193038 | 72 | 257 | 3.0 | 11.0 | 0.00 | 0.00 | 0.00 | 28 | 1005.8 |
| 20260504192526 | 72 | 140 | 2.0 | 18.0 | 0.00 | 0.00 | 0.00 | 28 | 1005.8 |
| 20260504192024 | 73 | 291 | 4.0 | 18.0 | 0.00 | 0.00 | 0.00 | 27 | 1005.9 |
| 20260504191542 | 73 | 158 | 4.0 | 13.0 | 0.00 | 0.00 | 0.00 | 28 | 1005.7 |
| 20260504191025 | 73 | 150 | 1.0 | 8.0 | 0.00 | 0.00 | 0.00 | 29 | 1005.8 |
| 20260504190526 | 72 | 59 | 2.0 | 12.0 | 0.00 | 0.00 | 0.00 | 29 | 1005.8 |
| 20260504190044 | 72 | 101 | 4.0 | 12.0 | 0.00 | 0.00 | 0.00 | 28 | 1005.9 |
| 20260504185524 | 72 | 121 | 3.0 | 12.0 | 0.00 | 0.00 | 0.00 | 28 | 1006.3 |
| 20260504185024 | 72 | 152 | 3.0 | 15.0 | 0.00 | 0.00 | 0.00 | 29 | 1006.2 |
| 20260504184548 | 72 | 160 | 4.0 | 15.0 | 0.00 | 0.00 | 0.00 | 28 | 1006.3 |
| 20260504184026 | 73 | 142 | 2.0 | 9.0 | 0.00 | 0.00 | 0.00 | 28 | 1006.4 |
| 20260504183524 | 72 | 115 | 2.0 | 8.0 | 0.00 | 0.00 | 0.00 | 31 | 1006.4 |
| 20260504183040 | 72 | 186 | 2.0 | 8.0 | 0.00 | 0.00 | 0.00 | 31 | 1006.5 |
| 20260504182526 | 72 | 233 | 3.0 | 8.0 | 0.00 | 0.00 | 0.00 | 32 | 1006.6 |
| 20260504182027 | 72 | 160 | 2.0 | 15.0 | 0.00 | 0.00 | 0.00 | 31 | 1006.6 |
| 20260504181538 | 72 | 293 | 3.0 | 15.0 | 0.00 | 0.00 | 0.00 | 27 | 1006.4 |
| 20260504181026 | 71 | 287 | 3.0 | 15.0 | 0.00 | 0.00 | 0.00 | 28 | 1006.4 |
| 20260504180525 | 71 | 73 | 3.0 | 17.0 | 0.00 | 0.00 | 0.00 | 29 | 1006.4 |
| 20260504180039 | 71 | 249 | 4.0 | 17.0 | 0.00 | 0.00 | 0.00 | 29 | 1006.6 |
| 20260504175528 | 72 | 280 | 3.0 | 11.0 | 0.00 | 0.00 | 0.00 | 30 | 1006.6 |
| 20260504175029 | 72 | 110 | 2.0 | 13.0 | 0.00 | 0.00 | 0.00 | 29 | 1006.6 |
| 20260504174540 | 72 | 79 | 2.0 | 13.0 | 0.00 | 0.00 | 0.00 | 29 | 1007.0 |
| 20260504174024 | 72 | 201 | 3.0 | 11.0 | 0.00 | 0.00 | 0.00 | 28 | 1006.8 |
| 20260504173526 | 72 | 255 | 3.0 | 11.0 | 0.00 | 0.00 | 0.00 | 30 | 1006.8 |
| 20260504173042 | 72 | 80 | 1.0 | 9.0 | 0.00 | 0.00 | 0.00 | 33 | 1006.8 |
| 20260504172525 | 71 | 315 | 3.0 | 9.0 | 0.00 | 0.00 | 0.00 | 31 | 1006.9 |
| 20260504172025 | 71 | 188 | 4.0 | 13.0 | 0.00 | 0.00 | 0.00 | 31 | 1006.9 |
| 20260504171540 | 70 | 170 | 3.0 | 13.0 | 0.00 | 0.00 | 0.00 | 30 | 1006.9 |
| 20260504171025 | 71 | 166 | 4.0 | 13.0 | 0.00 | 0.00 | 0.00 | 31 | 1007.0 |
| 20260504170524 | 71 | 238 | 3.0 | 12.0 | 0.00 | 0.00 | 0.00 | 33 | 1007.0 |
| 20260504151029 | 68 | 290 | 3.0 | 10.0 | 0.00 | 0.00 | 0.00 | 33 | 1008.5 |
| 20260504150526 | 68 | 62 | 3.0 | 17.0 | 0.00 | 0.00 | 0.00 | 34 | 1008.4 |
| 20260504141024 | 64 | 237 | 3.0 | 12.0 | 0.00 | 0.00 | 0.00 | 38 | 1008.8 |
| 20260504140527 | 64 | 53 | 3.0 | 12.0 | 0.00 | 0.00 | 0.00 | 37 | 1008.9 |
| 20260504130528 | 60 | 209 | 2.0 | 6.0 | 0.00 | 0.00 | 0.00 | 42 | 1009.6 |
| 20260504110528 | 49 | 174 | 0.0 | 1.0 | 0.00 | 0.02 | 0.00 | 60 | 1009.7 |
| 20260504100527 | 44 | 0 | 0.0 | 0.0 | 0.00 | 0.02 | 0.00 | 65 | 1009.7 |
| 20260504081539 | 43 | 0 | 0.0 | 1.0 | 0.00 | 0.02 | 0.00 | 66 | 1009.8 |
| 20260504081026 | 43 | 0 | 0.0 | 1.0 | 0.00 | 0.02 | 0.00 | 65 | 1009.8 |
| 20260504080528 | 43 | 0 | 0.0 | 2.0 | 0.00 | 0.02 | 0.00 | 65 | 1009.8 |
| 20260504050525 | 37 | 205 | 0.0 | 2.0 | 0.00 | 0.02 | 0.00 | 77 | 1009.7 |
| 20260504045524 | 35 | 0 | 0.0 | 1.0 | 0.00 | 0.02 | 0.00 | 79 | 1009.6 |
| 20260504045024 | 35 | 0 | 0.0 | 1.0 | 0.00 | 0.02 | 0.00 | 80 | 1009.6 |
| 20260504044537 | 35 | 0 | 0.0 | 0.0 | 0.00 | 0.02 | 0.00 | 80 | 1009.7 |
| 20260504044024 | 35 | 0 | 0.0 | 0.0 | 0.00 | 0.02 | 0.00 | 80 | 1009.6 |
| 20260504043525 | 35 | 0 | 0.0 | 0.0 | 0.00 | 0.02 | 0.00 | 79 | 1009.7 |
| 20260504043044 | 35 | 0 | 0.0 | 1.0 | 0.00 | 0.02 | 0.00 | 78 | 1009.7 |
| 20260504042524 | 36 | 0 | 0.0 | 1.0 | 0.00 | 0.02 | 0.00 | 78 | 1009.6 |
| 20260504042028 | 36 | 0 | 0.0 | 1.0 | 0.00 | 0.02 | 0.00 | 77 | 1009.8 |
| 20260504041541 | 36 | 0 | 0.0 | 1.0 | 0.00 | 0.02 | 0.00 | 76 | 1009.7 |
| 20260504041024 | 37 | 0 | 0.0 | 1.0 | 0.00 | 0.02 | 0.00 | 75 | 1009.7 |
| 20260504040526 | 37 | 0 | 0.0 | 1.0 | 0.00 | 0.02 | 0.00 | 74 | 1009.7 |
| 20260504040042 | 37 | 0 | 0.0 | 1.0 | 0.00 | 0.02 | 0.00 | 74 | 1009.6 |
| 20260504035525 | 38 | 0 | 0.0 | 1.0 | 0.00 | 0.02 | 0.02 | 74 | 1009.6 |
| 20260504035024 | 38 | 0 | 0.0 | 1.0 | 0.00 | 0.02 | 0.02 | 73 | 1009.6 |
| 20260504034537 | 37 | 240 | 0.0 | 1.0 | 0.00 | 0.02 | 0.02 | 74 | 1009.5 |
| 20260504034030 | 37 | 0 | 0.0 | 0.0 | 0.00 | 0.02 | 0.02 | 74 | 1009.6 |
| 20260504033524 | 37 | 0 | 0.0 | 0.0 | 0.00 | 0.02 | 0.02 | 74 | 1009.5 |
| 20260504033049 | 37 | 0 | 0.0 | 1.0 | 0.00 | 0.02 | 0.02 | 74 | 1009.5 |
| 20260504032525 | 37 | 0 | 0.0 | 1.0 | 0.00 | 0.02 | 0.02 | 74 | 1009.5 |
| 20260504032027 | 37 | 240 | 0.0 | 0.0 | 0.00 | 0.02 | 0.02 | 75 | 1009.5 |
| 20260504031554 | 37 | 0 | 0.0 | 0.0 | 0.00 | 0.02 | 0.02 | 76 | 1009.5 |
| 20260504031026 | 37 | 0 | 0.0 | 1.0 | 0.00 | 0.02 | 0.02 | 75 | 1009.5 |
| 20260504030527 | 38 | 0 | 0.0 | 1.0 | 0.00 | 0.02 | 0.02 | 73 | 1009.6 |
| 20260504030043 | 38 | 0 | 0.0 | 1.0 | 0.00 | 0.02 | 0.02 | 72 | 1009.5 |
| 20260504025527 | 38 | 240 | 0.0 | 1.0 | 0.00 | 0.02 | 0.02 | 73 | 1009.5 |
| 20260504025026 | 38 | 0 | 0.0 | 0.0 | 0.00 | 0.02 | 0.02 | 73 | 1009.5 |
| 20260504024546 | 38 | 0 | 0.0 | 0.0 | 0.00 | 0.02 | 0.02 | 73 | 1009.4 |
| 20260504024027 | 38 | 0 | 0.0 | 0.0 | 0.00 | 0.02 | 0.02 | 73 | 1009.4 |
| 20260504023524 | 38 | 0 | 0.0 | 0.0 | 0.00 | 0.02 | 0.02 | 72 | 1009.4 |
| 20260504023046 | 39 | 0 | 0.0 | 0.0 | 0.00 | 0.02 | 0.02 | 72 | 1009.5 |
| 20260504022531 | 39 | 0 | 0.0 | 0.0 | 0.00 | 0.02 | 0.02 | 71 | 1009.5 |
| 20260504022027 | 39 | 0 | 0.0 | 0.0 | 0.00 | 0.02 | 0.02 | 71 | 1009.4 |
| 20260504021542 | 39 | 0 | 0.0 | 0.0 | 0.00 | 0.02 | 0.02 | 72 | 1009.4 |
| 20260504021024 | 39 | 0 | 0.0 | 0.0 | 0.00 | 0.02 | 0.02 | 71 | 1009.4 |
| 20260504020523 | 39 | 0 | 0.0 | 0.0 | 0.00 | 0.02 | 0.02 | 71 | 1009.4 |
| 20260504020040 | 39 | 0 | 0.0 | 0.0 | 0.00 | 0.02 | 0.02 | 71 | 1009.3 |
| 20260504015527 | 39 | 0 | 0.0 | 0.0 | 0.00 | 0.02 | 0.02 | 69 | 1009.3 |
| 20260504015025 | 40 | 0 | 0.0 | 0.0 | 0.00 | 0.02 | 0.02 | 68 | 1009.3 |
| 20260504014543 | 40 | 0 | 0.0 | 0.0 | 0.00 | 0.02 | 0.02 | 68 | 1009.3 |
| 20260504014026 | 39 | 0 | 0.0 | 1.0 | 0.00 | 0.02 | 0.02 | 69 | 1009.2 |
| 20260504013527 | 39 | 0 | 0.0 | 1.0 | 0.00 | 0.02 | 0.02 | 69 | 1009.2 |
| 20260504013048 | 39 | 0 | 0.0 | 0.0 | 0.00 | 0.02 | 0.02 | 69 | 1009.1 |
| 20260504012524 | 40 | 0 | 0.0 | 0.0 | 0.00 | 0.02 | 0.02 | 68 | 1009.1 |
| 20260504012029 | 40 | 0 | 0.0 | 0.0 | 0.00 | 0.02 | 0.02 | 67 | 1009.0 |
| 20260504011544 | 40 | 0 | 0.0 | 0.0 | 0.00 | 0.02 | 0.02 | 68 | 1009.0 |
| 20260504011025 | 40 | 0 | 0.0 | 0.0 | 0.00 | 0.02 | 0.02 | 67 | 1009.0 |
| 20260504010529 | 40 | 0 | 0.0 | 0.0 | 0.00 | 0.02 | 0.02 | 66 | 1008.8 |
| 20260504010048 | 40 | 0 | 0.0 | 0.0 | 0.00 | 0.02 | 0.02 | 66 | 1008.8 |
| 20260504005527 | 41 | 0 | 0.0 | 0.0 | 0.00 | 0.02 | 0.02 | 65 | 1008.8 |
| 20260504005024 | 41 | 0 | 0.0 | 0.0 | 0.00 | 0.02 | 0.02 | 63 | 1008.6 |
| 20260504004539 | 42 | 0 | 0.0 | 0.0 | 0.00 | 0.02 | 0.02 | 63 | 1008.6 |
| 20260504004024 | 42 | 0 | 0.0 | 0.0 | 0.00 | 0.02 | 0.02 | 61 | 1008.5 |
| 20260504003527 | 43 | 0 | 0.0 | 0.0 | 0.00 | 0.02 | 0.02 | 60 | 1008.5 |
| 20260504003040 | 43 | 0 | 0.0 | 0.0 | 0.00 | 0.02 | 0.02 | 60 | 1008.4 |
| 20260504002527 | 44 | 0 | 0.0 | 0.0 | 0.00 | 0.02 | 0.02 | 59 | 1008.4 |
| 20260504002027 | 45 | 0 | 0.0 | 0.0 | 0.00 | 0.02 | 0.02 | 54 | 1008.4 |
| 20260504001548 | 46 | 0 | 0.0 | 0.0 | 0.00 | 0.02 | 0.02 | 53 | 1008.2 |
| 20260504001026 | 46 | 0 | 0.0 | 1.0 | 0.00 | 0.02 | 0.02 | 49 | 1008.3 |
| 20260504000527 | 47 | 0 | 0.0 | 1.0 | 0.00 | 0.02 | 0.02 | 48 | 1008.1 |
| 20260504000050 | 47 | 0 | 0.0 | 2.0 | 0.00 | 0.02 | 0.02 | 47 | 1008.1 |
| 20260503235529 | 48 | 0 | 0.0 | 2.0 | 0.00 | 0.02 | 0.02 | 46 | 1008.1 |
| 20260503235027 | 48 | 29 | 0.0 | 3.0 | 0.00 | 0.02 | 0.02 | 46 | 1008.1 |
| 20260503234601 | 49 | 0 | 0.0 | 3.0 | 0.00 | 0.02 | 0.02 | 45 | 1008.1 |
| 20260503234027 | 49 | 72 | 0.0 | 3.0 | 0.00 | 0.02 | 0.02 | 44 | 1007.9 |
| 20260503233524 | 49 | 115 | 0.0 | 3.0 | 0.00 | 0.02 | 0.02 | 43 | 1007.8 |
| 20260503233046 | 49 | 134 | 0.0 | 3.0 | 0.00 | 0.02 | 0.02 | 43 | 1007.8 |
| 20260503232523 | 50 | 0 | 0.0 | 3.0 | 0.00 | 0.02 | 0.02 | 43 | 1007.8 |
| 20260503232027 | 50 | 340 | 1.0 | 3.0 | 0.00 | 0.02 | 0.02 | 42 | 1007.7 |
| 20260503231540 | 50 | 0 | 1.0 | 3.0 | 0.00 | 0.02 | 0.02 | 43 | 1007.7 |
| 20260503231029 | 50 | 0 | 0.0 | 6.0 | 0.00 | 0.02 | 0.02 | 43 | 1007.6 |
| 20260503230528 | 50 | 345 | 1.0 | 6.0 | 0.00 | 0.02 | 0.02 | 41 | 1007.6 |
| 20260503230048 | 51 | 0 | 1.0 | 9.0 | 0.00 | 0.02 | 0.02 | 42 | 1007.6 |